Flag for Nicaragua Weather past 2 weeks in Masaya, Nicaragua

Now
75 °F

Partly sunny.


Feels Like: 75 °F
Forecast: 74 / 94 °F
Wind: 7 mph from East

Location: Managua A. C. Sandino

Current Time: May 30, 2015 at 7:10:41 AM

Latest Report: May 30, 2015 at 6:00 AM


Visibility: N/A

Pressure: 29.83 "Hg

Humidity: 83%

Dew point: 70 °F

Location of MasayaLocation

Historic Weather in Masaya — Graph

°F

Masaya temperature yesterday

Maximum temperature yesterday: 91 °F (at 3:00 PM)
Minimum temperature yesterday: 75 °F (at 4:00 AM)
Average temperature yesterday: 84 °F

Past Weeks' High & Low Weather Summary

 TemperatureHumidityPressure
High95 °F (May 16, 1:00 PM)94% (May 17, 5:00 PM)29.98 "Hg (May 17, 5:00 PM)
Low73 °F (May 18, 12:00 AM)19% (May 28, 9:00 PM)29.74 "Hg (May 20, 4:00 PM)
Average84 °F64%29.86 "Hg
* Reported May 15 6:00 AM — May 30 6:00 AM, Masaya, Weather by CustomWeather, © 2015

Note: Actual official high and low records may vary slightly from our data, if they occured in-between our weather recording intervals... More about our weather records

Advertising

Masaya weather history for previous 24 hours

 ConditionsComfort  
Time TempWeatherWind HumidityBarometerVisibility
6:00 AM
Sat, May 30
75 °FPartly sunny.7 mph83%29.83 "HgN/A
5:00 AM75 °FPassing clouds.5 mph83%29.83 "HgN/A
4:00 AM77 °FPassing clouds.5 mph79%29.83 "HgN/A
3:00 AM77 °FPassing clouds.7 mph79%29.83 "HgN/A
1:00 AM79 °FPassing clouds.7 mph74%29.83 "HgN/A
12:00 AM79 °FPassing clouds.7 mph74%29.86 "HgN/A
10:00 PM
Fri, May 29
81 °FPassing clouds.9 mph70%29.89 "HgN/A
9:00 PM82 °FPassing clouds.9 mph66%29.86 "HgN/A
8:00 PM82 °FPassing clouds.12 mph66%29.83 "HgN/A
7:00 PM86 °FPassing clouds.14 mph59%29.83 "HgN/A
6:00 PM88 °FPartly sunny.12 mph52%29.80 "HgN/A
5:00 PM90 °FPartly sunny.14 mph52%29.77 "HgN/A
4:00 PM91 °FScattered clouds.12 mph46%29.77 "HgN/A
3:00 PM91 °FScattered clouds.9 mph46%29.77 "HgN/A
1:00 PM90 °FScattered clouds.7 mph52%29.83 "HgN/A
12:00 PM90 °FScattered clouds.7 mph49%29.86 "HgN/A
11:00 AM90 °FScattered clouds.14 mph49%29.86 "HgN/A
10:00 AM88 °FScattered clouds.12 mph52%29.89 "HgN/A
9:00 AM86 °FScattered clouds.16 mph62%29.89 "HgN/A
8:00 AM82 °FPartly sunny.9 mph70%29.86 "HgN/A
7:00 AM81 °FPartly sunny.5 mph74%29.86 "HgN/A
Weather by CustomWeather, © 2015

See weather overviewHow to use our weather pages